owner,sensor,date,latitude,longitude,mass_concentration_of_chlorophyll_in_sea_water,qcFlag 
SCCF RECON,ioos:station:SCCF:12:1,2009-07-01T00:00:00Z,26.4966,-82.1479,6.4,1111122 
SCCF RECON,ioos:station:SCCF:12:1,2009-07-01T01:00:00Z,26.4966,-82.1479,4.96,1111122 
SCCF RECON,ioos:station:SCCF:12:1,2009-07-01T02:00:00Z,26.4966,-82.1479,2.62,1111122 
SCCF RECON,ioos:station:SCCF:12:1,2009-07-01T03:00:00Z,26.4966,-82.1479,4.3,1111122 
SCCF RECON,ioos:station:SCCF:12:1,2009-07-01T04:00:00Z,26.4966,-82.1479,2.74,1111122 
SCCF RECON,ioos:station:SCCF:12:1,2009-07-01T05:00:00Z,26.4966,-82.1479,3.52,1111122 
SCCF RECON,ioos:station:SCCF:12:1,2009-07-01T06:00:00Z,26.4966,-82.1479,3.98,1111122 
SCCF RECON,ioos:station:SCCF:12:1,2009-07-01T07:00:00Z,26.4966,-82.1479,3.19,1111122 
SCCF RECON,ioos:station:SCCF:12:1,2009-07-01T08:00:00Z,26.4966,-82.1479,3.27,1111122 
SCCF RECON,ioos:station:SCCF:12:1,2009-07-01T09:00:00Z,26.4966,-82.1479,3.85,1111122 
SCCF RECON,ioos:station:SCCF:12:1,2009-07-01T10:00:00Z,26.4966,-82.1479,3.91,1111122 
SCCF RECON,ioos:station:SCCF:12:1,2009-07-01T11:00:00Z,26.4966,-82.1479,3.4,1111122 
SCCF RECON,ioos:station:SCCF:12:1,2009-07-01T12:00:00Z,26.4966,-82.1479,2.65,1111122 
SCCF RECON,ioos:station:SCCF:12:1,2009-07-01T13:00:00Z,26.4966,-82.1479,2.03,1111122 
SCCF RECON,ioos:station:SCCF:12:1,2009-07-01T14:00:00Z,26.4966,-82.1479,2.63,1111122 
SCCF RECON,ioos:station:SCCF:12:1,2009-07-01T15:00:00Z,26.4966,-82.1479,2.48,1111122 
SCCF RECON,ioos:station:SCCF:12:1,2009-07-01T16:00:00Z,26.4966,-82.1479,2.79,1111122 
SCCF RECON,ioos:station:SCCF:12:1,2009-07-01T17:00:00Z,26.4966,-82.1479,2.7,1111122 
SCCF RECON,ioos:station:SCCF:12:1,2009-07-01T18:00:00Z,26.4966,-82.1479,2.3,1111122 
SCCF RECON,ioos:station:SCCF:12:1,2009-07-01T19:00:00Z,26.4966,-82.1479,3.55,1111122 
SCCF RECON,ioos:station:SCCF:12:1,2009-07-01T20:00:00Z,26.4966,-82.1479,3.19,1111122 
SCCF RECON,ioos:station:SCCF:12:1,2009-07-01T21:00:00Z,26.4966,-82.1479,3.11,1111122 
SCCF RECON,ioos:station:SCCF:12:1,2009-07-01T22:00:00Z,26.4966,-82.1479,3.0,1111122 
SCCF RECON,ioos:station:SCCF:12:1,2009-07-01T23:00:00Z,26.4966,-82.1479,3.45,1111122 
SCCF RECON,ioos:station:SCCF:12:1,2009-07-02T00:00:00Z,26.4966,-82.1479,3.22,1111122 
SCCF RECON,ioos:station:SCCF:12:1,2009-07-02T01:00:00Z,26.4966,-82.1479,3.78,1111122 
SCCF RECON,ioos:station:SCCF:12:1,2009-07-02T02:00:00Z,26.4966,-82.1479,1.92,1111122 
SCCF RECON,ioos:station:SCCF:12:1,2009-07-02T03:00:00Z,26.4966,-82.1479,1.92,1111122 
SCCF RECON,ioos:station:SCCF:12:1,2009-07-02T04:00:00Z,26.4966,-82.1479,1.49,1111122 
SCCF RECON,ioos:station:SCCF:12:1,2009-07-02T05:00:00Z,26.4966,-82.1479,1.4,1111122 
SCCF RECON,ioos:station:SCCF:12:1,2009-07-02T06:00:00Z,26.4966,-82.1479,1.64,1111122 
SCCF RECON,ioos:station:SCCF:12:1,2009-07-02T07:00:00Z,26.4966,-82.1479,2.3,1111122 
SCCF RECON,ioos:station:SCCF:12:1,2009-07-02T08:00:00Z,26.4966,-82.1479,2.25,1111122 
SCCF RECON,ioos:station:SCCF:12:1,2009-07-02T09:00:00Z,26.4966,-82.1479,1.43,1111122 
SCCF RECON,ioos:station:SCCF:12:1,2009-07-02T10:00:00Z,26.4966,-82.1479,2.2,1111122 
SCCF RECON,ioos:station:SCCF:12:1,2009-07-02T11:00:00Z,26.4966,-82.1479,2.22,1111122 
SCCF RECON,ioos:station:SCCF:12:1,2009-07-02T12:00:00Z,26.4966,-82.1479,2.44,1111122 
SCCF RECON,ioos:station:SCCF:12:1,2009-07-02T13:00:00Z,26.4966,-82.1479,2.96,1111122 
SCCF RECON,ioos:station:SCCF:12:1,2009-07-02T14:00:00Z,26.4966,-82.1479,1.88,1111122 
SCCF RECON,ioos:station:SCCF:12:1,2009-07-02T15:00:00Z,26.4966,-82.1479,1.63,1111122 
SCCF RECON,ioos:station:SCCF:12:1,2009-07-02T16:00:00Z,26.4966,-82.1479,1.93,1111122 
SCCF RECON,ioos:station:SCCF:12:1,2009-07-02T17:00:00Z,26.4966,-82.1479,2.17,1111122 
SCCF RECON,ioos:station:SCCF:12:1,2009-07-02T18:00:00Z,26.4966,-82.1479,1.92,1111122 
SCCF RECON,ioos:station:SCCF:12:1,2009-07-02T19:00:00Z,26.4966,-82.1479,1.96,1111122 
SCCF RECON,ioos:station:SCCF:12:1,2009-07-02T20:00:00Z,26.4966,-82.1479,2.93,1111122 
SCCF RECON,ioos:station:SCCF:12:1,2009-07-02T21:00:00Z,26.4966,-82.1479,3.8,1111122 
SCCF RECON,ioos:station:SCCF:12:1,2009-07-02T22:00:00Z,26.4966,-82.1479,2.91,1111122 
SCCF RECON,ioos:station:SCCF:12:1,2009-07-02T23:00:00Z,26.4966,-82.1479,3.41,1111122 
SCCF RECON,ioos:station:SCCF:12:1,2009-07-03T00:00:00Z,26.4966,-82.1479,2.93,1111122 
SCCF RECON,ioos:station:SCCF:12:1,2009-07-03T01:00:00Z,26.4966,-82.1479,2.58,1111122 
SCCF RECON,ioos:station:SCCF:12:1,2009-07-03T02:00:00Z,26.4966,-82.1479,2.04,1111122 
SCCF RECON,ioos:station:SCCF:12:1,2009-07-03T03:00:00Z,26.4966,-82.1479,1.69,1111122 
SCCF RECON,ioos:station:SCCF:12:1,2009-07-03T04:00:00Z,26.4966,-82.1479,1.5,1111122 
SCCF RECON,ioos:station:SCCF:12:1,2009-07-03T05:00:00Z,26.4966,-82.1479,1.62,1111122 
SCCF RECON,ioos:station:SCCF:12:1,2009-07-03T06:00:00Z,26.4966,-82.1479,1.7,1111122 
SCCF RECON,ioos:station:SCCF:12:1,2009-07-03T07:00:00Z,26.4966,-82.1479,1.72,1111122 
SCCF RECON,ioos:station:SCCF:12:1,2009-07-03T08:00:00Z,26.4966,-82.1479,1.77,1111122 
SCCF RECON,ioos:station:SCCF:12:1,2009-07-03T09:00:00Z,26.4966,-82.1479,1.68,1111122 
SCCF RECON,ioos:station:SCCF:12:1,2009-07-03T10:00:00Z,26.4966,-82.1479,1.6,1111122 
SCCF RECON,ioos:station:SCCF:12:1,2009-07-03T11:00:00Z,26.4966,-82.1479,1.75,1111122 
SCCF RECON,ioos:station:SCCF:12:1,2009-07-03T12:00:00Z,26.4966,-82.1479,1.94,1111122 
SCCF RECON,ioos:station:SCCF:12:1,2009-07-03T13:00:00Z,26.4966,-82.1479,1.74,1111122 
SCCF RECON,ioos:station:SCCF:12:1,2009-07-03T14:00:00Z,26.4966,-82.1479,1.92,1111122 
SCCF RECON,ioos:station:SCCF:12:1,2009-07-03T15:00:00Z,26.4966,-82.1479,1.86,1111122 
SCCF RECON,ioos:station:SCCF:12:1,2009-07-03T16:00:00Z,26.4966,-82.1479,1.56,1111122 
SCCF RECON,ioos:station:SCCF:12:1,2009-07-03T17:00:00Z,26.4966,-82.1479,1.97,1111122 
SCCF RECON,ioos:station:SCCF:12:1,2009-07-03T18:00:00Z,26.4966,-82.1479,1.66,1111122 
SCCF RECON,ioos:station:SCCF:12:1,2009-07-03T19:00:00Z,26.4966,-82.1479,1.38,1111122 
SCCF RECON,ioos:station:SCCF:12:1,2009-07-03T20:00:00Z,26.4966,-82.1479,1.71,1111122 
SCCF RECON,ioos:station:SCCF:12:1,2009-07-03T21:00:00Z,26.4966,-82.1479,1.94,1111122 
SCCF RECON,ioos:station:SCCF:12:1,2009-07-03T22:00:00Z,26.4966,-82.1479,2.99,1111122 
SCCF RECON,ioos:station:SCCF:12:1,2009-07-03T23:00:00Z,26.4966,-82.1479,2.76,1111122 
SCCF RECON,ioos:station:SCCF:12:1,2009-07-04T00:00:00Z,26.4966,-82.1479,2.52,1111122 
SCCF RECON,ioos:station:SCCF:12:1,2009-07-04T01:00:00Z,26.4966,-82.1479,2.24,1111122 
SCCF RECON,ioos:station:SCCF:12:1,2009-07-04T02:00:00Z,26.4966,-82.1479,1.92,1111122 
SCCF RECON,ioos:station:SCCF:12:1,2009-07-04T03:00:00Z,26.4966,-82.1479,1.38,1111122 
SCCF RECON,ioos:station:SCCF:12:1,2009-07-04T04:00:00Z,26.4966,-82.1479,1.8,1111122 
SCCF RECON,ioos:station:SCCF:12:1,2009-07-04T05:00:00Z,26.4966,-82.1479,1.72,1111122 
SCCF RECON,ioos:station:SCCF:12:1,2009-07-04T06:00:00Z,26.4966,-82.1479,1.42,1111122 
SCCF RECON,ioos:station:SCCF:12:1,2009-07-04T07:00:00Z,26.4966,-82.1479,1.82,1111122 
SCCF RECON,ioos:station:SCCF:12:1,2009-07-04T08:00:00Z,26.4966,-82.1479,1.51,1111122 
SCCF RECON,ioos:station:SCCF:12:1,2009-07-04T09:00:00Z,26.4966,-82.1479,1.39,1111122 
SCCF RECON,ioos:station:SCCF:12:1,2009-07-04T10:00:00Z,26.4966,-82.1479,2.02,1111122 
SCCF RECON,ioos:station:SCCF:12:1,2009-07-04T11:00:00Z,26.4966,-82.1479,2.19,1111122 
SCCF RECON,ioos:station:SCCF:12:1,2009-07-04T12:00:00Z,26.4966,-82.1479,2.3,1111122 
SCCF RECON,ioos:station:SCCF:12:1,2009-07-04T13:00:00Z,26.4966,-82.1479,2.34,1111122 
SCCF RECON,ioos:station:SCCF:12:1,2009-07-04T14:00:00Z,26.4966,-82.1479,2.09,1111122 
SCCF RECON,ioos:station:SCCF:12:1,2009-07-04T15:00:00Z,26.4966,-82.1479,2.05,1111122 
SCCF RECON,ioos:station:SCCF:12:1,2009-07-04T16:00:00Z,26.4966,-82.1479,2.0,1111122 
SCCF RECON,ioos:station:SCCF:12:1,2009-07-04T17:00:00Z,26.4966,-82.1479,1.38,1111122 
SCCF RECON,ioos:station:SCCF:12:1,2009-07-04T18:00:00Z,26.4966,-82.1479,1.24,1111122 
SCCF RECON,ioos:station:SCCF:12:1,2009-07-04T19:00:00Z,26.4966,-82.1479,1.43,1111122 
SCCF RECON,ioos:station:SCCF:12:1,2009-07-04T20:00:00Z,26.4966,-82.1479,1.27,1111122 
SCCF RECON,ioos:station:SCCF:12:1,2009-07-04T21:00:00Z,26.4966,-82.1479,2.07,1111122 
SCCF RECON,ioos:station:SCCF:12:1,2009-07-04T22:00:00Z,26.4966,-82.1479,2.09,1111122 
SCCF RECON,ioos:station:SCCF:12:1,2009-07-04T23:00:00Z,26.4966,-82.1479,3.2,1111122 
SCCF RECON,ioos:station:SCCF:12:1,2009-07-05T00:00:00Z,26.4966,-82.1479,3.66,1111122 
SCCF RECON,ioos:station:SCCF:12:1,2009-07-05T01:00:00Z,26.4966,-82.1479,2.82,1111122 
SCCF RECON,ioos:station:SCCF:12:1,2009-07-05T02:00:00Z,26.4966,-82.1479,2.8,1111122 
SCCF RECON,ioos:station:SCCF:12:1,2009-07-05T03:00:00Z,26.4966,-82.1479,2.56,1111122 
SCCF RECON,ioos:station:SCCF:12:1,2009-07-05T04:00:00Z,26.4966,-82.1479,2.03,1111122 
SCCF RECON,ioos:station:SCCF:12:1,2009-07-05T05:00:00Z,26.4966,-82.1479,2.03,1111122 
SCCF RECON,ioos:station:SCCF:12:1,2009-07-05T06:00:00Z,26.4966,-82.1479,2.25,1111122 
SCCF RECON,ioos:station:SCCF:12:1,2009-07-05T07:00:00Z,26.4966,-82.1479,2.53,1111122 
SCCF RECON,ioos:station:SCCF:12:1,2009-07-05T08:00:00Z,26.4966,-82.1479,1.92,1111122 
SCCF RECON,ioos:station:SCCF:12:1,2009-07-05T09:00:00Z,26.4966,-82.1479,1.91,1111122 
SCCF RECON,ioos:station:SCCF:12:1,2009-07-05T10:00:00Z,26.4966,-82.1479,2.21,1111122 
SCCF RECON,ioos:station:SCCF:12:1,2009-07-05T11:00:00Z,26.4966,-82.1479,2.27,1111122 
SCCF RECON,ioos:station:SCCF:12:1,2009-07-05T12:00:00Z,26.4966,-82.1479,2.17,1111122 
SCCF RECON,ioos:station:SCCF:12:1,2009-07-05T13:00:00Z,26.4966,-82.1479,3.06,1111122 
SCCF RECON,ioos:station:SCCF:12:1,2009-07-05T14:00:00Z,26.4966,-82.1479,2.25,1111122 
SCCF RECON,ioos:station:SCCF:12:1,2009-07-05T15:00:00Z,26.4966,-82.1479,2.19,1111122 
SCCF RECON,ioos:station:SCCF:12:1,2009-07-05T16:00:00Z,26.4966,-82.1479,2.53,1111122 
SCCF RECON,ioos:station:SCCF:12:1,2009-07-05T17:00:00Z,26.4966,-82.1479,1.57,1111122 
SCCF RECON,ioos:station:SCCF:12:1,2009-07-05T18:00:00Z,26.4966,-82.1479,1.78,1111122 
SCCF RECON,ioos:station:SCCF:12:1,2009-07-05T19:00:00Z,26.4966,-82.1479,1.75,1111122 
SCCF RECON,ioos:station:SCCF:12:1,2009-07-05T20:00:00Z,26.4966,-82.1479,1.71,1111122 
SCCF RECON,ioos:station:SCCF:12:1,2009-07-05T21:00:00Z,26.4966,-82.1479,2.45,1111122 
SCCF RECON,ioos:station:SCCF:12:1,2009-07-05T22:00:00Z,26.4966,-82.1479,2.47,1111122 
SCCF RECON,ioos:station:SCCF:12:1,2009-07-05T23:00:00Z,26.4966,-82.1479,2.6,1111122 
SCCF RECON,ioos:station:SCCF:12:1,2009-07-06T00:00:00Z,26.4966,-82.1479,2.31,1111122 
SCCF RECON,ioos:station:SCCF:12:1,2009-07-06T01:00:00Z,26.4966,-82.1479,2.55,1111122 
SCCF RECON,ioos:station:SCCF:12:1,2009-07-06T02:00:00Z,26.4966,-82.1479,1.83,1111122 
SCCF RECON,ioos:station:SCCF:12:1,2009-07-06T03:00:00Z,26.4966,-82.1479,1.74,1111122 
SCCF RECON,ioos:station:SCCF:12:1,2009-07-06T04:00:00Z,26.4966,-82.1479,1.44,1111122 
SCCF RECON,ioos:station:SCCF:12:1,2009-07-06T05:00:00Z,26.4966,-82.1479,1.57,1111122 
SCCF RECON,ioos:station:SCCF:12:1,2009-07-06T06:00:00Z,26.4966,-82.1479,1.95,1111122 
SCCF RECON,ioos:station:SCCF:12:1,2009-07-06T07:00:00Z,26.4966,-82.1479,1.64,1111122 
SCCF RECON,ioos:station:SCCF:12:1,2009-07-06T08:00:00Z,26.4966,-82.1479,2.03,1111122 
SCCF RECON,ioos:station:SCCF:12:1,2009-07-06T09:00:00Z,26.4966,-82.1479,1.85,1111122 
SCCF RECON,ioos:station:SCCF:12:1,2009-07-06T10:00:00Z,26.4966,-82.1479,2.72,1111122 
SCCF RECON,ioos:station:SCCF:12:1,2009-07-06T11:00:00Z,26.4966,-82.1479,2.06,1111122 
SCCF RECON,ioos:station:SCCF:12:1,2009-07-06T12:00:00Z,26.4966,-82.1479,2.11,1111122 
SCCF RECON,ioos:station:SCCF:12:1,2009-07-06T13:00:00Z,26.4966,-82.1479,2.53,1111122 
SCCF RECON,ioos:station:SCCF:12:1,2009-07-06T14:00:00Z,26.4966,-82.1479,2.8,1111122 
SCCF RECON,ioos:station:SCCF:12:1,2009-07-06T15:00:00Z,26.4966,-82.1479,2.8,1111122 
SCCF RECON,ioos:station:SCCF:12:1,2009-07-06T16:00:00Z,26.4966,-82.1479,2.87,1111122 
SCCF RECON,ioos:station:SCCF:12:1,2009-07-06T17:00:00Z,26.4966,-82.1479,2.53,1111122 
SCCF RECON,ioos:station:SCCF:12:1,2009-07-06T18:00:00Z,26.4966,-82.1479,2.9,1111122 
SCCF RECON,ioos:station:SCCF:12:1,2009-07-06T19:00:00Z,26.4966,-82.1479,2.44,1111122 
SCCF RECON,ioos:station:SCCF:12:1,2009-07-06T20:00:00Z,26.4966,-82.1479,2.02,1111122 
SCCF RECON,ioos:station:SCCF:12:1,2009-07-06T21:00:00Z,26.4966,-82.1479,2.58,1111122 
SCCF RECON,ioos:station:SCCF:12:1,2009-07-06T22:00:00Z,26.4966,-82.1479,2.92,1111122 
SCCF RECON,ioos:station:SCCF:12:1,2009-07-06T23:00:00Z,26.4966,-82.1479,3.38,1111122 
SCCF RECON,ioos:station:SCCF:12:1,2009-07-07T00:00:00Z,26.4966,-82.1479,3.61,1111122 
SCCF RECON,ioos:station:SCCF:12:1,2009-07-07T01:00:00Z,26.4966,-82.1479,3.22,1111122 
SCCF RECON,ioos:station:SCCF:12:1,2009-07-07T02:00:00Z,26.4966,-82.1479,2.53,1111122 
SCCF RECON,ioos:station:SCCF:12:1,2009-07-07T03:00:00Z,26.4966,-82.1479,2.36,1111122 
SCCF RECON,ioos:station:SCCF:12:1,2009-07-07T04:00:00Z,26.4966,-82.1479,2.47,1111122 
SCCF RECON,ioos:station:SCCF:12:1,2009-07-07T05:00:00Z,26.4966,-82.1479,2.17,1111122 
SCCF RECON,ioos:station:SCCF:12:1,2009-07-07T06:00:00Z,26.4966,-82.1479,2.27,1111122 
SCCF RECON,ioos:station:SCCF:12:1,2009-07-07T07:00:00Z,26.4966,-82.1479,2.07,1111122 
SCCF RECON,ioos:station:SCCF:12:1,2009-07-07T08:00:00Z,26.4966,-82.1479,2.09,1111122 
SCCF RECON,ioos:station:SCCF:12:1,2009-07-07T09:00:00Z,26.4966,-82.1479,2.2,1111122 
SCCF RECON,ioos:station:SCCF:12:1,2009-07-07T10:00:00Z,26.4966,-82.1479,2.3,1111122 
SCCF RECON,ioos:station:SCCF:12:1,2009-07-07T11:00:00Z,26.4966,-82.1479,2.59,1111122 
SCCF RECON,ioos:station:SCCF:12:1,2009-07-07T12:00:00Z,26.4966,-82.1479,2.34,1111122 
SCCF RECON,ioos:station:SCCF:12:1,2009-07-07T13:00:00Z,26.4966,-82.1479,2.82,1111122 
SCCF RECON,ioos:station:SCCF:12:1,2009-07-07T14:00:00Z,26.4966,-82.1479,2.92,1111122 
SCCF RECON,ioos:station:SCCF:12:1,2009-07-07T15:00:00Z,26.4966,-82.1479,3.13,1111122 
SCCF RECON,ioos:station:SCCF:12:1,2009-07-07T16:00:00Z,26.4966,-82.1479,3.05,1111122 
SCCF RECON,ioos:station:SCCF:12:1,2009-07-07T17:00:00Z,26.4966,-82.1479,3.02,1111122 
SCCF RECON,ioos:station:SCCF:12:1,2009-07-07T18:00:00Z,26.4966,-82.1479,2.68,1111122 
SCCF RECON,ioos:station:SCCF:12:1,2009-07-07T19:00:00Z,26.4966,-82.1479,2.51,1111122 
SCCF RECON,ioos:station:SCCF:12:1,2009-07-07T20:00:00Z,26.4966,-82.1479,2.95,1111122 
SCCF RECON,ioos:station:SCCF:12:1,2009-07-07T21:00:00Z,26.4966,-82.1479,2.55,1111122 
SCCF RECON,ioos:station:SCCF:12:1,2009-07-07T22:00:00Z,26.4966,-82.1479,3.36,1111122 
SCCF RECON,ioos:station:SCCF:12:1,2009-07-07T23:00:00Z,26.4966,-82.1479,3.7,1111122 
SCCF RECON,ioos:station:SCCF:12:1,2009-07-08T00:00:00Z,26.4966,-82.1479,3.67,1111122 
SCCF RECON,ioos:station:SCCF:12:1,2009-07-08T01:00:00Z,26.4966,-82.1479,3.68,1111122 
SCCF RECON,ioos:station:SCCF:12:1,2009-07-08T02:00:00Z,26.4966,-82.1479,2.94,1111122 
SCCF RECON,ioos:station:SCCF:12:1,2009-07-08T03:00:00Z,26.4966,-82.1479,2.78,1111122 
SCCF RECON,ioos:station:SCCF:12:1,2009-07-08T04:00:00Z,26.4966,-82.1479,2.68,1111122 
SCCF RECON,ioos:station:SCCF:12:1,2009-07-08T05:00:00Z,26.4966,-82.1479,2.31,1111122 
SCCF RECON,ioos:station:SCCF:12:1,2009-07-08T06:00:00Z,26.4966,-82.1479,1.79,1111122 
SCCF RECON,ioos:station:SCCF:12:1,2009-07-08T07:00:00Z,26.4966,-82.1479,2.64,1111122 
SCCF RECON,ioos:station:SCCF:12:1,2009-07-08T08:00:00Z,26.4966,-82.1479,2.3,1111122 
SCCF RECON,ioos:station:SCCF:12:1,2009-07-08T09:00:00Z,26.4966,-82.1479,2.31,1111122 
SCCF RECON,ioos:station:SCCF:12:1,2009-07-08T10:00:00Z,26.4966,-82.1479,2.3,1111122 
SCCF RECON,ioos:station:SCCF:12:1,2009-07-08T11:00:00Z,26.4966,-82.1479,2.47,1111122 
SCCF RECON,ioos:station:SCCF:12:1,2009-07-08T12:00:00Z,26.4966,-82.1479,2.37,1111122 
SCCF RECON,ioos:station:SCCF:12:1,2009-07-08T13:00:00Z,26.4966,-82.1479,2.98,1111122 
SCCF RECON,ioos:station:SCCF:12:1,2009-07-08T14:00:00Z,26.4966,-82.1479,3.13,1111122 
SCCF RECON,ioos:station:SCCF:12:1,2009-07-08T15:00:00Z,26.4966,-82.1479,3.46,1111122 
SCCF RECON,ioos:station:SCCF:12:1,2009-07-08T16:00:00Z,26.4966,-82.1479,3.27,1111122 
SCCF RECON,ioos:station:SCCF:12:1,2009-07-08T17:00:00Z,26.4966,-82.1479,3.32,1111122 
SCCF RECON,ioos:station:SCCF:12:1,2009-07-08T18:00:00Z,26.4966,-82.1479,2.94,1111122 
SCCF RECON,ioos:station:SCCF:12:1,2009-07-08T19:00:00Z,26.4966,-82.1479,2.61,1111122 
SCCF RECON,ioos:station:SCCF:12:1,2009-07-08T20:00:00Z,26.4966,-82.1479,2.48,1111122 
SCCF RECON,ioos:station:SCCF:12:1,2009-07-08T21:00:00Z,26.4966,-82.1479,2.26,1111122 
SCCF RECON,ioos:station:SCCF:12:1,2009-07-08T22:00:00Z,26.4966,-82.1479,2.74,1111122 
SCCF RECON,ioos:station:SCCF:12:1,2009-07-08T23:00:00Z,26.4966,-82.1479,2.82,1111122 
SCCF RECON,ioos:station:SCCF:12:1,2009-07-09T00:00:00Z,26.4966,-82.1479,3.32,1111122 
SCCF RECON,ioos:station:SCCF:12:1,2009-07-09T01:00:00Z,26.4966,-82.1479,3.37,1111122 
SCCF RECON,ioos:station:SCCF:12:1,2009-07-09T02:00:00Z,26.4966,-82.1479,3.49,1111122 
SCCF RECON,ioos:station:SCCF:12:1,2009-07-09T03:00:00Z,26.4966,-82.1479,2.95,1111122 
SCCF RECON,ioos:station:SCCF:12:1,2009-07-09T04:00:00Z,26.4966,-82.1479,2.67,1111122 
SCCF RECON,ioos:station:SCCF:12:1,2009-07-09T05:00:00Z,26.4966,-82.1479,2.5,1111122 
SCCF RECON,ioos:station:SCCF:12:1,2009-07-09T06:00:00Z,26.4966,-82.1479,2.13,1111122 
SCCF RECON,ioos:station:SCCF:12:1,2009-07-09T07:00:00Z,26.4966,-82.1479,2.18,1111122 
SCCF RECON,ioos:station:SCCF:12:1,2009-07-09T08:00:00Z,26.4966,-82.1479,2.08,1111122 
SCCF RECON,ioos:station:SCCF:12:1,2009-07-09T09:00:00Z,26.4966,-82.1479,1.97,1111122 
SCCF RECON,ioos:station:SCCF:12:1,2009-07-09T10:00:00Z,26.4966,-82.1479,2.15,1111122 
SCCF RECON,ioos:station:SCCF:12:1,2009-07-09T11:00:00Z,26.4966,-82.1479,2.15,1111122 
SCCF RECON,ioos:station:SCCF:12:1,2009-07-09T12:00:00Z,26.4966,-82.1479,1.91,1111122 
SCCF RECON,ioos:station:SCCF:12:1,2009-07-09T13:00:00Z,26.4966,-82.1479,2.27,1111122 
SCCF RECON,ioos:station:SCCF:12:1,2009-07-09T14:00:00Z,26.4966,-82.1479,2.85,1111122 
SCCF RECON,ioos:station:SCCF:12:1,2009-07-09T15:00:00Z,26.4966,-82.1479,2.89,1111122 
SCCF RECON,ioos:station:SCCF:12:1,2009-07-09T16:00:00Z,26.4966,-82.1479,2.79,1111122 
SCCF RECON,ioos:station:SCCF:12:1,2009-07-09T17:00:00Z,26.4966,-82.1479,2.98,1111122 
SCCF RECON,ioos:station:SCCF:12:1,2009-07-09T18:00:00Z,26.4966,-82.1479,0.08,1111122 
SCCF RECON,ioos:station:SCCF:12:1,2009-07-09T19:00:00Z,26.4966,-82.1479,3.8,1111122 
SCCF RECON,ioos:station:SCCF:12:1,2009-07-09T20:00:00Z,26.4966,-82.1479,3.86,1111122 
SCCF RECON,ioos:station:SCCF:12:1,2009-07-09T21:00:00Z,26.4966,-82.1479,3.85,1111122 
SCCF RECON,ioos:station:SCCF:12:1,2009-07-09T22:00:00Z,26.4966,-82.1479,3.91,1111122 
SCCF RECON,ioos:station:SCCF:12:1,2009-07-09T23:00:00Z,26.4966,-82.1479,3.32,1111122 
SCCF RECON,ioos:station:SCCF:12:1,2009-07-10T00:00:00Z,26.4966,-82.1479,2.65,1111122 
SCCF RECON,ioos:station:SCCF:12:1,2009-07-10T01:00:00Z,26.4966,-82.1479,2.71,1111122 
SCCF RECON,ioos:station:SCCF:12:1,2009-07-10T02:00:00Z,26.4966,-82.1479,3.45,1111122 
SCCF RECON,ioos:station:SCCF:12:1,2009-07-10T03:00:00Z,26.4966,-82.1479,3.23,1111122 
SCCF RECON,ioos:station:SCCF:12:1,2009-07-10T04:00:00Z,26.4966,-82.1479,2.86,1111122 
SCCF RECON,ioos:station:SCCF:12:1,2009-07-10T05:00:00Z,26.4966,-82.1479,2.68,1111122 
SCCF RECON,ioos:station:SCCF:12:1,2009-07-10T06:00:00Z,26.4966,-82.1479,2.77,1111122 
SCCF RECON,ioos:station:SCCF:12:1,2009-07-10T07:00:00Z,26.4966,-82.1479,2.79,1111122 
SCCF RECON,ioos:station:SCCF:12:1,2009-07-10T08:00:00Z,26.4966,-82.1479,2.69,1111122 
SCCF RECON,ioos:station:SCCF:12:1,2009-07-10T09:00:00Z,26.4966,-82.1479,2.52,1111122 
SCCF RECON,ioos:station:SCCF:12:1,2009-07-10T10:00:00Z,26.4966,-82.1479,2.68,1111122 
SCCF RECON,ioos:station:SCCF:12:1,2009-07-10T11:00:00Z,26.4966,-82.1479,2.46,1111122 
SCCF RECON,ioos:station:SCCF:12:1,2009-07-10T12:00:00Z,26.4966,-82.1479,2.31,1111122 
SCCF RECON,ioos:station:SCCF:12:1,2009-07-10T13:00:00Z,26.4966,-82.1479,2.33,1111122 
SCCF RECON,ioos:station:SCCF:12:1,2009-07-10T14:00:00Z,26.4966,-82.1479,2.64,1111122 
SCCF RECON,ioos:station:SCCF:12:1,2009-07-10T15:00:00Z,26.4966,-82.1479,2.79,1111122 
SCCF RECON,ioos:station:SCCF:12:1,2009-07-10T16:00:00Z,26.4966,-82.1479,2.96,1111122 
SCCF RECON,ioos:station:SCCF:12:1,2009-07-10T17:00:00Z,26.4966,-82.1479,2.95,1111122 
SCCF RECON,ioos:station:SCCF:12:1,2009-07-10T18:00:00Z,26.4966,-82.1479,3.53,1111122 
SCCF RECON,ioos:station:SCCF:12:1,2009-07-10T19:00:00Z,26.4966,-82.1479,3.53,1111122 
SCCF RECON,ioos:station:SCCF:12:1,2009-07-10T20:00:00Z,26.4966,-82.1479,3.58,1111122 
SCCF RECON,ioos:station:SCCF:12:1,2009-07-10T21:00:00Z,26.4966,-82.1479,3.56,1111122 
SCCF RECON,ioos:station:SCCF:12:1,2009-07-10T22:00:00Z,26.4966,-82.1479,3.44,1111122 
SCCF RECON,ioos:station:SCCF:12:1,2009-07-10T23:00:00Z,26.4966,-82.1479,3.68,1111122 
SCCF RECON,ioos:station:SCCF:12:1,2009-07-11T00:00:00Z,26.4966,-82.1479,3.69,1111122 
SCCF RECON,ioos:station:SCCF:12:1,2009-07-11T01:00:00Z,26.4966,-82.1479,3.8,1111122 
SCCF RECON,ioos:station:SCCF:12:1,2009-07-11T02:00:00Z,26.4966,-82.1479,3.72,1111122 
SCCF RECON,ioos:station:SCCF:12:1,2009-07-11T03:00:00Z,26.4966,-82.1479,3.12,1111122 
SCCF RECON,ioos:station:SCCF:12:1,2009-07-11T04:00:00Z,26.4966,-82.1479,3.25,1111122 
SCCF RECON,ioos:station:SCCF:12:1,2009-07-11T05:00:00Z,26.4966,-82.1479,3.39,1111122 
SCCF RECON,ioos:station:SCCF:12:1,2009-07-11T06:00:00Z,26.4966,-82.1479,3.25,1111122 
SCCF RECON,ioos:station:SCCF:12:1,2009-07-11T07:00:00Z,26.4966,-82.1479,2.97,1111122 
SCCF RECON,ioos:station:SCCF:12:1,2009-07-11T08:00:00Z,26.4966,-82.1479,3.04,1111122 
SCCF RECON,ioos:station:SCCF:12:1,2009-07-11T09:00:00Z,26.4966,-82.1479,2.95,1111122 
SCCF RECON,ioos:station:SCCF:12:1,2009-07-11T10:00:00Z,26.4966,-82.1479,2.79,1111122 
SCCF RECON,ioos:station:SCCF:12:1,2009-07-11T11:00:00Z,26.4966,-82.1479,2.52,1111122 
SCCF RECON,ioos:station:SCCF:12:1,2009-07-11T12:00:00Z,26.4966,-82.1479,2.3,1111122 
SCCF RECON,ioos:station:SCCF:12:1,2009-07-11T13:00:00Z,26.4966,-82.1479,2.43,1111122 
SCCF RECON,ioos:station:SCCF:12:1,2009-07-11T14:00:00Z,26.4966,-82.1479,2.62,1111122 
SCCF RECON,ioos:station:SCCF:12:1,2009-07-11T15:00:00Z,26.4966,-82.1479,2.78,1111122 
SCCF RECON,ioos:station:SCCF:12:1,2009-07-11T16:00:00Z,26.4966,-82.1479,3.1,1111122 
SCCF RECON,ioos:station:SCCF:12:1,2009-07-11T17:00:00Z,26.4966,-82.1479,3.17,1111122 
SCCF RECON,ioos:station:SCCF:12:1,2009-07-11T18:00:00Z,26.4966,-82.1479,3.51,1111122 
SCCF RECON,ioos:station:SCCF:12:1,2009-07-11T19:00:00Z,26.4966,-82.1479,4.25,1111122 
SCCF RECON,ioos:station:SCCF:12:1,2009-07-11T20:00:00Z,26.4966,-82.1479,4.16,1111122 
SCCF RECON,ioos:station:SCCF:12:1,2009-07-11T21:00:00Z,26.4966,-82.1479,3.74,1111122 
SCCF RECON,ioos:station:SCCF:12:1,2009-07-11T22:00:00Z,26.4966,-82.1479,4.23,1111122 
SCCF RECON,ioos:station:SCCF:12:1,2009-07-11T23:00:00Z,26.4966,-82.1479,3.87,1111122 
SCCF RECON,ioos:station:SCCF:12:1,2009-07-12T00:00:00Z,26.4966,-82.1479,3.32,1111122 
SCCF RECON,ioos:station:SCCF:12:1,2009-07-12T01:00:00Z,26.4966,-82.1479,3.2,1111122 
SCCF RECON,ioos:station:SCCF:12:1,2009-07-12T02:00:00Z,26.4966,-82.1479,3.22,1111122 
SCCF RECON,ioos:station:SCCF:12:1,2009-07-12T03:00:00Z,26.4966,-82.1479,3.27,1111122 
SCCF RECON,ioos:station:SCCF:12:1,2009-07-12T04:00:00Z,26.4966,-82.1479,3.14,1111122 
SCCF RECON,ioos:station:SCCF:12:1,2009-07-12T05:00:00Z,26.4966,-82.1479,3.3,1111122 
SCCF RECON,ioos:station:SCCF:12:1,2009-07-12T06:00:00Z,26.4966,-82.1479,3.24,1111122 
SCCF RECON,ioos:station:SCCF:12:1,2009-07-12T07:00:00Z,26.4966,-82.1479,3.18,1111122 
SCCF RECON,ioos:station:SCCF:12:1,2009-07-12T08:00:00Z,26.4966,-82.1479,2.99,1111122 
SCCF RECON,ioos:station:SCCF:12:1,2009-07-12T09:00:00Z,26.4966,-82.1479,2.89,1111122 
SCCF RECON,ioos:station:SCCF:12:1,2009-07-12T10:00:00Z,26.4966,-82.1479,2.71,1111122 
SCCF RECON,ioos:station:SCCF:12:1,2009-07-12T11:00:00Z,26.4966,-82.1479,2.63,1111122 
SCCF RECON,ioos:station:SCCF:12:1,2009-07-12T12:00:00Z,26.4966,-82.1479,2.36,1111122 
SCCF RECON,ioos:station:SCCF:12:1,2009-07-12T13:00:00Z,26.4966,-82.1479,2.36,1111122 